This is the latest recevied weather packets stored in our database for station/object SP9KB-13. If no packets are shown the sender has not sent any weather packets the latest 10 day(s).
| Time | Temp. | Humidity | Pressure | Rain* | Wind** | Luminosity | Snow |
|---|---|---|---|---|---|---|---|
| 1777667156 | 5° C | 85% | 1005.6 hPa | 0 mm | - | - | - |
| 1777666856 | 5° C | 85% | 1005.6 hPa | 0 mm | - | - | - |
| 1777666555 | 5.56° C | 84% | 1005.8 hPa | 0 mm | - | - | - |
| 1777666255 | 5.56° C | 84% | 1005.7 hPa | 0 mm | - | - | - |
| 1777665954 | 5.56° C | 84% | 1005.8 hPa | 0 mm | - | - | - |
| 1777665653 | 5.56° C | 82% | 1005.7 hPa | 0 mm | - | - | - |
| 1777665353 | 6.11° C | 82% | 1005.7 hPa | 0 mm | - | - | - |
| 1777665052 | 6.11° C | 81% | 1005.6 hPa | 0 mm | - | - | - |
| 1777664752 | 6.11° C | 81% | 1005.5 hPa | 0 mm | - | - | - |
| 1777664451 | 6.11° C | 81% | 1005.7 hPa | 0 mm | - | - | - |
| 1777664150 | 6.11° C | 80% | 1005.5 hPa | 0 mm | - | - | - |
| 1777663850 | 6.67° C | 80% | 1005.7 hPa | 0 mm | - | - | - |
| 1777663549 | 6.67° C | 80% | 1005.5 hPa | 0 mm | - | - | - |
| 1777663249 | 6.67° C | 80% | 1005.6 hPa | 0 mm | - | - | - |
| 1777662948 | 6.67° C | 80% | 1005.6 hPa | 0 mm | - | - | - |
| 1777662648 | 7.22° C | 79% | 1005.6 hPa | 0 mm | - | - | - |
| 1777662347 | 7.78° C | 77% | 1005.5 hPa | 0 mm | - | - | - |
| 1777662046 | 7.78° C | 76% | 1005.6 hPa | 0 mm | - | - | - |
| 1777661746 | 8.33° C | 75% | 1005.4 hPa | 0 mm | - | - | - |
| 1777661445 | 8.33° C | 74% | 1005.5 hPa | 0 mm | - | - | - |
| 1777661145 | 8.33° C | 74% | 1005.5 hPa | 0 mm | - | - | - |
| 1777660844 | 7.78° C | 75% | 1005.3 hPa | 0 mm | - | - | - |
| 1777660543 | 8.33° C | 74% | 1005.4 hPa | 0 mm | - | - | - |
| 1777660243 | 7.78° C | 75% | 1005.3 hPa | 0 mm | - | - | - |
| 1777659942 | 7.78° C | 74% | 1005.4 hPa | 0 mm | - | - | - |
* Rain latest hour (hover to see other rain measurements)
** Current wind speed in m/s (hover to see current wind gust speed)